Regional Weather Roundup
Issued by NWS Jackson, KY

Home | Current Version | Previous Version | Graphics & Text | Print | Product List | Glossary On
Versions: 1 2 3 4 5 6 7 8 9 10 11 12 13 14 15 16 17 18 19 20 21 22 23 24 25 26 27 28 29 30 31 32 33 34 35 36 37 38 39 40 41 42 43 44 45 46 47 48 49 50
000
ASUS43 KJKL 041910
RWRJKL

EAST KENTUCKY HOURLY WEATHER ROUNDUP
NATIONAL WEATHER SERVICE JACKSON KY
300 PM EDT TUE AUG 04 2015

NOTE: "FAIR" INDICATES FEW OR NO CLOUDS BELOW 12,000 FEET WITH
NO SIGNIFICANT WEATHER AND/OR OBSTRUCTIONS TO VISIBILITY.

* THESE REPORTS ARE NOT UNDER NWS QUALITY CONTROL AND MAY NOT
  REPORT WEATHER SUCH AS PRECIPITATION AND FOG.

KYZ079-080-083-085-087-088-110-112-115-119-120-042000
...EASTERN KENTUCKY...

CITY           SKY/WX    TMP DP  RH WIND       PRES   REMARKS
JACKSON        PTSUNNY   84  71  65 CALM      30.02F
LONDON         PTSUNNY   90  66  45 W13       30.01F HX  92
SOMERSET*      PTSUNNY   88  70  55 W10       30.02F HX  92
MONTICELLO*    MOSUNNY   91  74  57 VRB5      30.04F HX 100
WILLIAMSBURG*  SUNNY     90  72  55 SW5       30.02F HX  96
MIDDLESBORO*   MOSUNNY   90  70  51 NW6       30.01F HX  95
HAZARD APT*    LGT RAIN  81  70  69 SW20      30.03S
BLACK MTN*       N/A     75  64  69 W2          N/A
PIKEVILLE APT* MOSUNNY   84  70  61 W5        30.02F
BIG SANDY*     MOCLDY    84  71  64 W7        30.01F
MOREHEAD APT*  PTCLDY    82  70  65 VRB3      30.02F
$$

KYZ035-036-041-042-044-050-067-078-099-042000
...CENTRAL KENTUCKY...

CITY           SKY/WX    TMP DP  RH WIND       PRES   REMARKS
MT STERLING*   CLOUDY    84  70  61 NW6       30.01F
FLEMING/MASON* PTSUNNY   82  70  65 W9        30.00F
DANVILLE*      PTSUNNY   86  70  58 NW8       30.02S HX  90
RICHMOND*      MOSUNNY   88  68  51 W13       29.99F HX  91
LEXINGTON      CLOUDY    86  69  56 W7        30.01F HX  90
FRANKFORT      CLOUDY    84  69  60 W8G17     29.99F
$$

KYZ091>093-OHZ055-061-077-WVZ005-015-034-035-042-042000
...SOUTHERN OHIO/WEST VIRGINIA...

CITY           SKY/WX    TMP DP  RH WIND       PRES   REMARKS
COVINGTON      PTSUNNY   84  59  42 W12       29.99S
COLUMBUS       MOSUNNY   83  55  38 SW13      29.96F
DAYTON         PTSUNNY   80  57  45 W9        29.99F
WILMINGTON     SUNNY     82  57  42 W10       29.98F
HUNTINGTON     PTSUNNY   84  68  58 W10       29.97F
CHARLESTON     PTSUNNY   84  67  56 SW10      29.98F
PINEVILLE*     PTSUNNY   84  71  64 MISG      30.09F
BECKLEY        PTSUNNY   79  64  60 W9        30.08F
BLUEFIELD      LGT RAIN  78  65  63 NW7       30.12S
$$

VAZ002-007-008-TNZ017-027-036-066-071-042000
...SOUTHWEST VIRGINIA/EAST TENNESSEE...

CITY           SKY/WX    TMP DP  RH WIND       PRES   REMARKS
WISE*          MOSUNNY   88  59  37 W8        30.11F
ABINGDON*      MOSUNNY   87  64  45 W8        30.07F
BRISTOL        MOSUNNY   91  64  40 CALM      30.03F HX  92
KNOXVILLE      PTSUNNY   92  64  39 VRB3      30.01F HX  93
OAK RIDGE      MOSUNNY   94  65  38 W8        30.02F HX  96
CROSSVILLE     MOSUNNY   88  66  48 NW8       30.09F HX  90
NASHVILLE      PTSUNNY   97  65  34 SW6       30.00F HX  99
$$

...KEY TO REMARKS...
VSB - VISIBILITY IN MILES
WCI - WIND CHILL INDEX
HX  - HEAT INDEX

$$


USA.gov is the U.S. government's official web portal to all federal, state and local government web resources and services.